This is the latest recevied weather packets stored in our database for station/object K5NAN. If no packets are shown the sender has not sent any weather packets the latest 10 day(s).
| Time | Temp. | Humidity | Pressure | Rain* | Wind** | Luminosity | Snow |
|---|---|---|---|---|---|---|---|
| 1778031562 | 22.22° C | 82% | 1005.1 hPa | 0 mm | - | 0 W/m² | - |
| 1778031260 | 22.78° C | 81% | 1005.2 hPa | 0 mm | - | 0 W/m² | - |
| 1778030956 | 22.78° C | 80% | 1004.7 hPa | 0 mm | - | 0 W/m² | - |
| 1778030652 | 22.78° C | 80% | 1004.5 hPa | 0 mm | - | 0 W/m² | - |
| 1778030349 | 22.78° C | 79% | 1004.5 hPa | 0 mm | - | 0 W/m² | - |
| 1778030047 | 22.78° C | 78% | 1004.4 hPa | 0 mm | - | 0 W/m² | - |
| 1778029743 | 23.33° C | 76% | 1004.2 hPa | 0 mm | - | 0 W/m² | - |
| 1778029442 | 23.89° C | 75% | 1004.2 hPa | 0 mm | - | 0 W/m² | - |
| 1778029138 | 23.33° C | 75% | 1004.3 hPa | 0 mm | - | 0 W/m² | - |
| 1778028836 | 23.33° C | 76% | 1004.4 hPa | 0 mm | - | 1 W/m² | - |
| 1778028531 | 23.89° C | 79% | 1004.2 hPa | 0 mm | - | 2 W/m² | - |
| 1778028229 | 24.44° C | 85% | 1004.1 hPa | 0 mm | - | 3 W/m² | - |
| 1778027925 | 24.44° C | 87% | 1004.1 hPa | 0 mm | - | 3 W/m² | - |
| 1778027621 | 24.44° C | 88% | 1004.2 hPa | 0 mm | - | 2 W/m² | - |
| 1778027318 | 24.44° C | 86% | 1004.3 hPa | 1.78 mm | - | 2 W/m² | - |
| 1778027014 | 25° C | 84% | 1004 hPa | 3.05 mm | - | 1 W/m² | - |
| 1778026710 | 25° C | 82% | 1003.7 hPa | 3.05 mm | - | 9 W/m² | - |
| 1778026407 | 26.11° C | 78% | 1003.6 hPa | 1.78 mm | - | 15 W/m² | - |
| 1778026104 | 26.67° C | 75% | 1003.2 hPa | 0 mm | - | 18 W/m² | - |
| 1778025802 | 26.67° C | 74% | 1003.2 hPa | 0 mm | - | 14 W/m² | - |
| 1778025498 | 27.22° C | 74% | 1003 hPa | 0 mm | - | 19 W/m² | - |
| 1778025196 | 27.22° C | 73% | 1003.2 hPa | 0 mm | - | 39 W/m² | - |
| 1778024893 | 27.22° C | 73% | 1003.3 hPa | 0 mm | - | 62 W/m² | - |
| 1778024591 | 27.22° C | 72% | 1003.3 hPa | 0 mm | - | 64 W/m² | - |
| 1778024287 | 27.78° C | 72% | 1003.2 hPa | 0 mm | - | 62 W/m² | - |
* Rain latest hour (hover to see other rain measurements)
** Current wind speed in m/s (hover to see current wind gust speed)